Location: Syke, Rochdale
(53.6121°N, 2.1588°W)
Time: 21:06:14
(UTC+01:00)

STRAND 1 - Visible Passes

Search period start: 16 November 2018 00:00
Search period end: 26 November 2018 00:00
Orbit: 769 x 781 km, 98.5° (Epoch: 15 November)

Date Brightness Start Highest point End Pass type
(mag) Time Alt. Az. Time Alt. Az. Time Alt. Az.
16 Nov ? 05:32:36 10° ENE 05:35:13 14° NE 05:37:49 10° NNE visible
16 Nov ? 07:08:23 10° SSE 07:13:26 59° ENE 07:18:31 10° N visible
17 Nov ? 06:35:02 10° SE 06:39:40 35° ENE 06:44:19 10° N visible
18 Nov ? 06:02:13 10° ESE 06:06:03 22° NE 06:09:53 10° N visible
18 Nov ? 07:39:31 10° SSE 07:44:41 83° WSW 07:49:53 10° NNW visible
19 Nov ? 05:30:07 10° ENE 05:32:35 14° NE 05:35:03 10° NNE visible
19 Nov ? 07:05:44 10° SE 07:10:46 57° ENE 07:15:50 10° N visible
20 Nov ? 06:32:26 10° ESE 06:37:01 33° ENE 06:41:36 10° N visible
21 Nov ? 05:59:39 10° E 06:03:24 21° NE 06:07:09 10° N visible
21 Nov ? 07:36:50 10° SSE 07:42:00 86° WSW 07:47:12 10° NNW visible
22 Nov ? 05:27:38 10° ENE 05:29:57 13° NE 05:32:15 10° NNE visible
22 Nov ? 07:03:05 10° SE 07:08:06 54° ENE 07:13:08 10° N visible
23 Nov ? 06:29:50 10° ESE 06:34:22 32° ENE 06:38:53 10° N visible
24 Nov ? 05:57:06 10° E 06:00:46 20° NE 06:04:25 10° N visible
24 Nov ? 07:34:10 10° SSE 07:39:20 90° WSW 07:44:31 10° NNW visible
25 Nov ? 05:25:11 10° ENE 05:27:19 13° NE 05:29:26 10° NNE visible
25 Nov ? 07:00:27 10° SE 07:05:26 52° ENE 07:10:26 10° N visible
